Regional Weather Roundup
Issued by NWS Northern Indiana

Home | Current Version | Previous Version | Graphics & Text | Print | Product List | Glossary On
Versions: 1 2 3 4 5 6 7 8 9 10 11 12 13 14 15 16 17 18 19 20 21 22 23 24 25 26 27 28 29 30 31 32 33 34 35 36 37 38 39 40 41 42 43 44 45 46 47 48 49 50
000
ASUS43 KIWX 270410
RWRIWX

KIWX WEATHER ROUNDUP
NATIONAL WEATHER SERVICE NORTHERN INDIANA
1200 AM EDT MON APR 27 2015

NOTE: "FAIR" INDICATES FEW OR NO CLOUDS BELOW 12,000 FEET WITH NO
SIGNIFICANT WEATHER AND/OR OBSTRUCTIONS TO VISIBILITY.

* THESE STATIONS ARE NOT UNDER NWS QUALITY CONTROL. THEY ALSO MAY NOT
  REPORT WEATHER SUCH AS PRECIPITATION OR FOG.

INZ001>027-270500-
NORTHERN INDIANA

CITY           SKY/WX    TMP DP  RH WIND       PRES   REMARKS
GARY*          CLEAR     44  28  54 N10       30.03S
VALPARAISO     PTCLDY    40  30  67 NW10      30.00S
MICHIGAN CITY* CLEAR     37  30  75 N8        30.01S
LAPORTE*       PTCLDY    42  32  67 N15       29.99S
KNOX*          PTCLDY    37  19  48 NW8       29.98S
SOUTH BEND     PTCLDY    40  27  59 NW8       29.98S
GOSHEN         PTCLDY    40  28  62 NW8       29.95S
MONTICELLO*    CLEAR     37  31  78 NW8       29.98S
LOGANSPORT*    CLEAR     41  27  56 NW6       29.97F
ROCHESTER*     PTCLDY    43  30  61 NW6       29.97S
WARSAW*        PTCLDY    37  28  70 CALM      29.95S
ANGOLA*        CLOUDY    48  36  61 NW6       29.92S
FORT WAYNE     CLOUDY    48  31  51 NW7       29.94S
HUNTINGTON*    CLOUDY    46  30  53 NW5       29.94S
PERU/GRISSOM   CLOUDY    44  30  58 NW5       29.95S
MARION*        CLOUDY    46  31  56 N7        29.96S

$$
INZ028>050-270500-
CENTRAL INDIANA

CITY           SKY/WX    TMP DP  RH WIND       PRES   REMARKS
LAFAYETTE      CLEAR     40  27  59 N6        29.99S
KOKOMO*        CLEAR     43  30  61 NW8       29.96S
MUNCIE*        CLOUDY    49  34  56 N10       29.94R
INDIANAPOLIS   PTCLDY    45  31  58 N12       29.95S

$$
MIZ043>046-050>051-056>058-064>065-071>073-077>080-270500-
SOUTHWEST LOWER MICHIGAN

CITY           SKY/WX    TMP DP  RH WIND       PRES   REMARKS
BATTLE CREEK   CLEAR     47  28  47 N10       29.96R
BENTON HARBOR  CLEAR     40  33  76 VRB5      29.99R
COLDWATER*     PTCLDY    47  29  49 N9        29.93R
HILLSDALE*     CLOUDY    49  31  48 N5        29.92S
HOLLAND        CLEAR     47  30  51 N7        30.00R
GRAND RAPIDS   CLEAR     45  29  53 N10       29.98R
KALAMAZOO      CLEAR     42  29  59 N9        29.96R
STURGIS*       PTCLDY    45  28  53 N10       29.93S
THREE RIVERS*  FAIR      44  30  57 N6        29.95S

$$
OHZ001>008-015>018-024>025-270500-
NORTHWEST OHIO

CITY           SKY/WX    TMP DP  RH WIND       PRES   REMARKS
WAUSEON*       CLOUDY    46  34  61 SE3       29.92S
DEFIANCE       CLOUDY    50  32  50 CALM      29.92S
FINDLAY        MOCLDY    46  32  58 E7        29.91R
TOLEDO EXPRESS CLOUDY    46  35  65 E6        29.92R
TOLEDO METCALF MOCLDY    46  33  60 NE8       29.94R
LIMA           CLOUDY    47  34  60 E5        29.91S

$$
AND FOR LAKE MICHIGAN COASTAL AND OPEN LAKE BUOY OBSERVATIONS

STATION/POSITION TEMP    WIND        PRES    VSBY  WAVE
                 AIR SEA DIR/SP/G                  HT/PER
                 (F)     (DEG/KT/KT) (MB)    (MI)  (FT/S)
CALUMET HARBOR    43     330/ 11/ 16   N/A
MICHIGAN CITY     41     320/ 14/ 15   N/A
BURNS HARBOR      42     340/ 11/ 16 1016.9S
SAINT JOSEPH      42     360/  7/ 13 1016.6R
MICHIGAN CITY     41 45  350/ 14/ 17   N/A           4/ 5

$$
&&


USA.gov is the U.S. government's official web portal to all federal, state and local government web resources and services.